| time (UTC) | temp C | wind direction | speed KPH | gust KPH | rain 1hr cm | rain 24hr cm | rain mn cm | humidity % | barometer mb |
| 20260505102045 | 11 | 48 | 0.0 | 0.0 | 0.00 | 0.00 | 0.03 | 88 | 1005.2 |
| 20260505101526 | 10 | 333 | 0.0 | 0.0 | 0.00 | 0.00 | 0.03 | 88 | 1005.2 |
| 20260505101005 | 11 | 354 | 0.0 | 0.0 | 0.00 | 0.00 | 0.03 | 88 | 1005.2 |
| 20260505100445 | 11 | 26 | 0.0 | 0.0 | 0.00 | 0.00 | 0.03 | 87 | 1005.4 |
| 20260505095926 | 11 | 53 | 0.0 | 0.0 | 0.00 | 0.00 | 0.03 | 87 | 1005.1 |
| 20260505095405 | 10 | 55 | 0.0 | 0.0 | 0.00 | 0.00 | 0.03 | 87 | 1005.1 |
| 20260505094845 | 11 | 58 | 0.0 | 0.0 | 0.00 | 0.00 | 0.03 | 87 | 1004.9 |
| 20260505094324 | 10 | 43 | 0.0 | 0.0 | 0.00 | 0.00 | 0.03 | 87 | 1005.2 |
| 20260505093805 | 10 | 16 | 0.0 | 0.0 | 0.00 | 0.00 | 0.03 | 87 | 1005.1 |
| 20260505093245 | 10 | 34 | 0.0 | 0.0 | 0.00 | 0.00 | 0.03 | 87 | 1005.1 |
| 20260505092725 | 10 | 47 | 0.0 | 0.0 | 0.00 | 0.00 | 0.03 | 87 | 1005.1 |
| 20260505092204 | 10 | 55 | 0.0 | 0.0 | 0.00 | 0.00 | 0.03 | 87 | 1005.3 |
| 20260505091645 | 11 | 53 | 0.0 | 0.0 | 0.00 | 0.00 | 0.03 | 87 | 1005.1 |
| 20260505091124 | 11 | 54 | 0.0 | 0.0 | 0.00 | 0.00 | 0.03 | 86 | 1004.9 |
| 20260505090604 | 11 | 52 | 0.0 | 0.0 | 0.00 | 0.00 | 0.03 | 86 | 1005.1 |
| 20260505090045 | 11 | 21 | 0.0 | 0.0 | 0.00 | 0.00 | 0.03 | 85 | 1005.0 |
| 20260505085524 | 11 | 49 | 0.0 | 0.0 | 0.00 | 0.00 | 0.03 | 85 | 1004.9 |
| 20260505085004 | 11 | 9 | 0.0 | 0.0 | 0.00 | 0.00 | 0.03 | 85 | 1004.7 |
| 20260505084445 | 11 | 346 | 0.0 | 0.0 | 0.00 | 0.00 | 0.03 | 85 | 1004.8 |
| 20260505083925 | 11 | 341 | 0.0 | 0.0 | 0.00 | 0.00 | 0.03 | 83 | 1004.8 |
| 20260505083404 | 11 | 50 | 0.0 | 0.0 | 0.00 | 0.00 | 0.03 | 83 | 1004.7 |
| 20260505082845 | 12 | 345 | 0.0 | 0.0 | 0.00 | 0.00 | 0.03 | 82 | 1004.5 |
| 20260505082324 | 11 | 151 | 0.0 | 0.0 | 0.00 | 0.00 | 0.03 | 80 | 1004.7 |
| 20260505081804 | 11 | 101 | 0.0 | 0.0 | 0.00 | 0.00 | 0.03 | 81 | 1004.5 |
| 20260505081245 | 12 | 119 | 0.0 | 0.0 | 0.00 | 0.00 | 0.03 | 80 | 1004.5 |
| 20260505080725 | 12 | 161 | 0.0 | 0.0 | 0.00 | 0.00 | 0.03 | 80 | 1004.6 |
| 20260505080204 | 12 | 141 | 0.0 | 0.0 | 0.00 | 0.00 | 0.03 | 79 | 1004.4 |
| 20260505075644 | 12 | 150 | 0.0 | 0.0 | 0.00 | 0.00 | 0.03 | 78 | 1004.3 |
| 20260505075125 | 12 | 153 | 0.0 | 0.0 | 0.00 | 0.00 | 0.03 | 77 | 1004.4 |
| 20260505074604 | 12 | 160 | 0.0 | 0.0 | 0.00 | 0.00 | 0.03 | 77 | 1004.2 |
| 20260505074045 | 12 | 153 | 0.0 | 0.0 | 0.00 | 0.00 | 0.03 | 76 | 1004.3 |
| 20260505073524 | 12 | 165 | 0.0 | 0.0 | 0.00 | 0.00 | 0.03 | 75 | 1004.0 |
| 20260505073009 | 12 | 167 | 0.0 | 0.0 | 0.00 | 0.00 | 0.03 | 75 | 1003.9 |
| 20260505072445 | 12 | 154 | 0.0 | 0.0 | 0.00 | 0.00 | 0.03 | 75 | 1004.1 |
| 20260505071925 | 12 | 158 | 0.0 | 0.0 | 0.00 | 0.00 | 0.03 | 74 | 1004.1 |
| 20260505071405 | 12 | 186 | 0.0 | 0.0 | 0.00 | 0.00 | 0.03 | 74 | 1003.9 |
| 20260505070846 | 12 | 175 | 0.0 | 0.0 | 0.00 | 0.00 | 0.03 | 74 | 1003.8 |
| 20260505070325 | 13 | 182 | 0.0 | 0.0 | 0.00 | 0.00 | 0.03 | 74 | 1003.8 |
| 20260505065804 | 12 | 190 | 0.0 | 0.0 | 0.00 | 0.00 | 0.03 | 74 | 1003.7 |
| 20260505065246 | 13 | 171 | 0.0 | 0.0 | 0.00 | 0.00 | 0.03 | 74 | 1003.7 |
| 20260505064730 | 13 | 142 | 0.0 | 0.0 | 0.00 | 0.00 | 0.03 | 75 | 1003.7 |
| 20260505064220 | 13 | 130 | 0.0 | 0.0 | 0.00 | 0.00 | 0.03 | 74 | 1003.5 |
| 20260505063701 | 13 | 120 | 0.0 | 0.0 | 0.00 | 0.00 | 0.03 | 74 | 1003.6 |
| 20260505063124 | 13 | 122 | 0.0 | 0.0 | 0.00 | 0.00 | 0.03 | 72 | 1003.6 |
| 20260505062604 | 13 | 128 | 0.0 | 0.0 | 0.00 | 0.00 | 0.03 | 71 | 1003.6 |
| 20260505062045 | 13 | 130 | 0.0 | 0.0 | 0.00 | 0.00 | 0.03 | 70 | 1003.6 |
| 20260505061524 | 13 | 137 | 0.0 | 0.0 | 0.00 | 0.00 | 0.03 | 70 | 1003.7 |
| 20260505061003 | 13 | 165 | 0.0 | 0.0 | 0.00 | 0.00 | 0.03 | 70 | 1003.7 |
| 20260505060446 | 13 | 151 | 0.0 | 0.0 | 0.00 | 0.00 | 0.03 | 72 | 1003.6 |
| 20260505055925 | 13 | 144 | 0.0 | 0.0 | 0.00 | 0.00 | 0.03 | 71 | 1003.4 |
| 20260505055406 | 13 | 114 | 0.0 | 0.0 | 0.00 | 0.00 | 0.03 | 70 | 1003.3 |
| 20260505054845 | 13 | 165 | 0.0 | 0.0 | 0.00 | 0.00 | 0.03 | 70 | 1003.5 |
| 20260505054326 | 13 | 165 | 0.0 | 0.0 | 0.00 | 0.00 | 0.03 | 70 | 1003.3 |
| 20260505053805 | 13 | 283 | 0.0 | 0.0 | 0.00 | 0.00 | 0.03 | 68 | 1003.2 |
| 20260505053245 | 13 | 150 | 0.0 | 0.0 | 0.00 | 0.00 | 0.03 | 69 | 1003.3 |
| 20260505052724 | 13 | 137 | 0.0 | 0.0 | 0.00 | 0.00 | 0.03 | 70 | 1003.2 |
| 20260505052204 | 13 | 178 | 0.0 | 0.0 | 0.00 | 0.00 | 0.03 | 68 | 1003.0 |
| 20260505051644 | 13 | 112 | 0.0 | 0.0 | 0.00 | 0.00 | 0.03 | 69 | 1002.9 |
| 20260505051124 | 13 | 150 | 0.0 | 0.0 | 0.00 | 0.00 | 0.03 | 70 | 1003.1 |
| 20260505050604 | 13 | 95 | 0.0 | 0.0 | 0.00 | 0.00 | 0.03 | 69 | 1003.1 |
| 20260505041244 | 13 | 170 | 0.0 | 0.0 | 0.00 | 0.00 | 0.03 | 70 | 1002.7 |
| 20260505040724 | 13 | 163 | 4.8 | 8.0 | 0.00 | 0.00 | 0.03 | 70 | 1002.8 |
| 20260505040204 | 13 | 147 | 6.4 | 8.0 | 0.00 | 0.00 | 0.03 | 70 | 1002.7 |
| 20260505035645 | 14 | 182 | 0.0 | 0.0 | 0.00 | 0.00 | 0.03 | 70 | 1002.7 |
| 20260505035124 | 13 | 170 | 11.3 | 12.9 | 0.00 | 0.00 | 0.03 | 70 | 1002.7 |
| 20260505034604 | 13 | 158 | 8.0 | 8.0 | 0.00 | 0.00 | 0.03 | 69 | 1002.5 |
| 20260505034045 | 14 | 201 | 1.6 | 4.8 | 0.00 | 0.00 | 0.03 | 69 | 1002.7 |
| 20260505033523 | 15 | 198 | 3.2 | 8.0 | 0.00 | 0.00 | 0.03 | 66 | 1002.7 |
| 20260505033004 | 15 | 153 | 6.4 | 8.0 | 0.00 | 0.00 | 0.03 | 68 | 1002.6 |
| 20260505032445 | 14 | 169 | 9.7 | 12.9 | 0.00 | 0.00 | 0.03 | 67 | 1002.6 |
| 20260505031924 | 15 | 164 | 4.8 | 8.0 | 0.00 | 0.00 | 0.03 | 67 | 1002.7 |
| 20260505031404 | 15 | 169 | 11.3 | 16.1 | 0.00 | 0.00 | 0.03 | 67 | 1002.5 |
| 20260505030845 | 15 | 169 | 8.0 | 12.9 | 0.00 | 0.00 | 0.03 | 66 | 1002.5 |
| 20260505030324 | 15 | 159 | 11.3 | 12.9 | 0.00 | 0.00 | 0.03 | 65 | 1002.7 |
| 20260505025804 | 15 | 190 | 8.0 | 12.9 | 0.00 | 0.00 | 0.03 | 68 | 1002.8 |
| 20260505025244 | 14 | 178 | 1.6 | 4.8 | 0.00 | 0.00 | 0.03 | 67 | 1002.7 |
| 20260505024724 | 15 | 170 | 11.3 | 16.1 | 0.00 | 0.00 | 0.03 | 67 | 1002.7 |
| 20260505024205 | 15 | 175 | 4.8 | 8.0 | 0.00 | 0.00 | 0.03 | 67 | 1002.5 |
| 20260505023645 | 15 | 183 | 8.0 | 12.9 | 0.00 | 0.00 | 0.03 | 70 | 1002.7 |
| 20260505023124 | 14 | 178 | 8.0 | 12.9 | 0.00 | 0.00 | 0.03 | 69 | 1002.7 |
| 20260505022604 | 15 | 191 | 8.0 | 8.0 | 0.00 | 0.00 | 0.03 | 66 | 1002.7 |
| 20260505022044 | 15 | 196 | 3.2 | 8.0 | 0.00 | 0.00 | 0.03 | 67 | 1002.9 |
| 20260505021524 | 15 | 171 | 11.3 | 12.9 | 0.00 | 0.00 | 0.03 | 69 | 1003.1 |
| 20260505021005 | 13 | 180 | 6.4 | 8.0 | 0.00 | 0.00 | 0.03 | 69 | 1002.9 |
| 20260505020445 | 13 | 177 | 4.8 | 8.0 | 0.00 | 0.00 | 0.03 | 71 | 1002.9 |
| 20260505015925 | 13 | 151 | 8.0 | 12.9 | 0.00 | 0.00 | 0.03 | 75 | 1003.2 |
| 20260505015405 | 12 | 204 | 3.2 | 4.8 | 0.00 | 0.00 | 0.03 | 75 | 1003.3 |
| 20260505014845 | 13 | 176 | 9.7 | 12.9 | 0.00 | 0.00 | 0.03 | 75 | 1003.1 |
| 20260505014326 | 12 | 172 | 14.5 | 16.1 | 0.00 | 0.00 | 0.03 | 75 | 1003.2 |
| 20260505013805 | 13 | 174 | 12.9 | 16.1 | 0.00 | 0.00 | 0.03 | 75 | 1003.0 |
| 20260505013245 | 13 | 168 | 14.5 | 20.9 | 0.00 | 0.00 | 0.03 | 74 | 1003.2 |
| 20260505012725 | 13 | 187 | 4.8 | 8.0 | 0.00 | 0.00 | 0.03 | 74 | 1003.0 |
| 20260505012205 | 13 | 175 | 6.4 | 8.0 | 0.00 | 0.00 | 0.03 | 77 | 1003.4 |
| 20260505011645 | 13 | 178 | 4.8 | 8.0 | 0.00 | 0.00 | 0.03 | 77 | 1003.1 |
| 20260505011124 | 13 | 171 | 4.8 | 8.0 | 0.00 | 0.00 | 0.03 | 77 | 1003.0 |
| 20260505010605 | 13 | 174 | 9.7 | 12.9 | 0.00 | 0.00 | 0.03 | 75 | 1003.2 |
| 20260505010045 | 12 | 177 | 9.7 | 16.1 | 0.00 | 0.00 | 0.03 | 77 | 1002.9 |
| 20260505005524 | 12 | 175 | 11.3 | 16.1 | 0.00 | 0.00 | 0.03 | 79 | 1003.0 |
| 20260505005005 | 12 | 190 | 6.4 | 8.0 | 0.00 | 0.00 | 0.03 | 81 | 1003.0 |
| 20260505004444 | 12 | 202 | 3.2 | 8.0 | 0.00 | 0.00 | 0.03 | 81 | 1002.8 |
| 20260505003924 | 12 | 163 | 9.7 | 12.9 | 0.00 | 0.00 | 0.03 | 82 | 1002.9 |
| 20260505003404 | 12 | 193 | 3.2 | 4.8 | 0.00 | 0.00 | 0.03 | 84 | 1002.7 |
| 20260505002844 | 12 | 172 | 8.0 | 12.9 | 0.00 | 0.00 | 0.03 | 86 | 1002.8 |
| 20260505002324 | 12 | 183 | 0.0 | 0.0 | 0.00 | 0.00 | 0.03 | 90 | 1002.8 |
| 20260505001804 | 11 | 178 | 8.0 | 8.0 | 0.00 | 0.00 | 0.03 | 92 | 1002.8 |
| 20260505001244 | 11 | 188 | 6.4 | 8.0 | 0.00 | 0.00 | 0.03 | 95 | 1002.6 |
| 20260505000725 | 10 | 185 | 4.8 | 8.0 | 0.00 | 0.00 | 0.03 | 97 | 1002.8 |
| 20260505000204 | 11 | 175 | 4.8 | 8.0 | 0.00 | 0.00 | 0.03 | 97 | 1002.8 |
| 20260504235644 | 11 | 166 | 4.8 | 8.0 | 0.00 | 0.00 | 0.03 | 98 | 1002.7 |
| 20260504235124 | 10 | 170 | 4.8 | 8.0 | 0.00 | 0.00 | 0.03 | 97 | 1002.5 |
| 20260504234604 | 10 | 160 | 4.8 | 8.0 | 0.00 | 0.00 | 0.03 | 97 | 1002.9 |
| 20260504234044 | 10 | 160 | 8.0 | 12.9 | 0.00 | 0.00 | 0.03 | 97 | 1002.7 |
| 20260504233523 | 10 | 187 | 11.3 | 16.1 | 0.00 | 0.00 | 0.03 | 97 | 1002.7 |
| 20260504233004 | 10 | 172 | 3.2 | 8.0 | 0.00 | 0.00 | 0.03 | 97 | 1002.6 |
| 20260504232444 | 11 | 149 | 6.4 | 8.0 | 0.00 | 0.00 | 0.03 | 98 | 1002.6 |
| 20260504231923 | 11 | 166 | 6.4 | 8.0 | 0.00 | 0.00 | 0.03 | 98 | 1002.5 |
| 20260504231403 | 10 | 176 | 4.8 | 8.0 | 0.00 | 0.00 | 0.03 | 98 | 1002.4 |
| 20260504230844 | 10 | 193 | 0.0 | 0.0 | 0.00 | 0.00 | 0.03 | 98 | 1002.1 |
| 20260504230323 | 10 | 176 | 0.0 | 0.0 | 0.00 | 0.00 | 0.03 | 98 | 1002.4 |
| 20260504225804 | 10 | 150 | 0.0 | 0.0 | 0.03 | 0.00 | 0.03 | 98 | 1002.4 |
| 20260504225245 | 10 | 154 | 0.0 | 0.0 | 0.03 | 0.00 | 0.03 | 98 | 1002.3 |
| 20260504224723 | 10 | 168 | 0.0 | 0.0 | 0.03 | 0.00 | 0.03 | 98 | 1002.2 |
| 20260504224203 | 10 | 163 | 0.0 | 0.0 | 0.03 | 0.00 | 0.03 | 97 | 1002.3 |
| 20260504223644 | 10 | 161 | 0.0 | 0.0 | 0.03 | 0.00 | 0.03 | 97 | 1002.1 |
| 20260504223123 | 10 | 158 | 0.0 | 0.0 | 0.03 | 0.00 | 0.03 | 97 | 1002.3 |
| 20260504222603 | 10 | 151 | 0.0 | 0.0 | 0.03 | 0.00 | 0.03 | 97 | 1002.1 |
| 20260504222045 | 10 | 153 | 0.0 | 0.0 | 0.03 | 0.00 | 0.03 | 97 | 1001.8 |
| 20260504221523 | 10 | 85 | 0.0 | 0.0 | 0.03 | 0.00 | 0.03 | 97 | 1001.9 |
| 20260504221003 | 10 | 313 | 0.0 | 0.0 | 0.03 | 0.00 | 0.03 | 97 | 1001.9 |
| 20260504220444 | 10 | 335 | 0.0 | 0.0 | 0.03 | 0.00 | 0.03 | 97 | 1001.6 |
| 20260504215923 | 10 | 322 | 0.0 | 0.0 | 0.00 | 0.00 | 0.00 | 97 | 1001.6 |
| 20260504215403 | 10 | 124 | 0.0 | 0.0 | 0.00 | 0.00 | 0.00 | 97 | 1001.6 |
| 20260504214844 | 10 | 42 | 0.0 | 0.0 | 0.00 | 0.00 | 0.00 | 97 | 1001.5 |
| 20260504214323 | 10 | 16 | 0.0 | 0.0 | 0.00 | 0.00 | 0.00 | 97 | 1001.3 |
| 20260504213803 | 10 | 113 | 0.0 | 0.0 | 0.00 | 0.00 | 0.00 | 97 | 1001.1 |
| 20260504213244 | 10 | 349 | 0.0 | 0.0 | 0.00 | 0.00 | 0.00 | 97 | 1001.1 |
| 20260504212723 | 10 | 55 | 0.0 | 0.0 | 0.00 | 0.00 | 0.00 | 97 | 1001.1 |
| 20260504212203 | 10 | 53 | 0.0 | 0.0 | 0.00 | 0.00 | 0.00 | 97 | 1000.9 |
| 20260504211644 | 10 | 74 | 0.0 | 0.0 | 0.00 | 0.00 | 0.00 | 97 | 1000.9 |
| 20260504211123 | 10 | 325 | 0.0 | 0.0 | 0.00 | 0.00 | 0.00 | 97 | 1000.8 |
| 20260504210603 | 10 | 78 | 0.0 | 0.0 | 0.00 | 0.00 | 0.00 | 96 | 1000.6 |
| 20260504210044 | 10 | 35 | 0.0 | 0.0 | 0.00 | 0.00 | 0.00 | 97 | 1000.7 |
| 20260504205523 | 10 | 4 | 0.0 | 0.0 | 0.00 | 0.00 | 0.00 | 96 | 1000.6 |
| 20260504205003 | 10 | 359 | 0.0 | 0.0 | 0.00 | 0.00 | 0.00 | 96 | 1000.5 |
| 20260504204444 | 10 | 288 | 0.0 | 0.0 | 0.00 | 0.00 | 0.00 | 96 | 1000.4 |
| 20260504203923 | 10 | 4 | 0.0 | 0.0 | 0.00 | 0.00 | 0.00 | 96 | 1000.3 |
| 20260504203403 | 10 | 78 | 0.0 | 0.0 | 0.00 | 0.00 | 0.00 | 96 | 1000.2 |
| 20260504202844 | 10 | 39 | 0.0 | 0.0 | 0.00 | 0.00 | 0.00 | 96 | 1000.2 |
| 20260504202323 | 10 | 348 | 0.0 | 0.0 | 0.00 | 0.00 | 0.00 | 96 | 1000.0 |
| 20260504201803 | 10 | 39 | 0.0 | 0.0 | 0.00 | 0.00 | 0.00 | 95 | 1000.0 |
| 20260504201244 | 10 | 3 | 0.0 | 0.0 | 0.00 | 0.00 | 0.00 | 95 | 1000.0 |
| 20260504200723 | 10 | 75 | 0.0 | 0.0 | 0.00 | 0.00 | 0.00 | 95 | 999.8 |
| 20260504200203 | 10 | 143 | 0.0 | 0.0 | 0.00 | 0.00 | 0.00 | 95 | 999.6 |
| 20260504195645 | 10 | 80 | 0.0 | 0.0 | 0.00 | 0.00 | 0.00 | 95 | 999.7 |
| 20260504195123 | 10 | 310 | 0.0 | 0.0 | 0.00 | 0.00 | 0.00 | 95 | 999.8 |
| 20260504194603 | 10 | 61 | 0.0 | 0.0 | 0.00 | 0.00 | 0.00 | 95 | 999.8 |
| 20260504194045 | 10 | 24 | 0.0 | 0.0 | 0.00 | 0.00 | 0.00 | 95 | 999.7 |
| 20260504193523 | 10 | 352 | 0.0 | 0.0 | 0.00 | 0.00 | 0.00 | 95 | 999.6 |
| 20260504193003 | 10 | 358 | 0.0 | 0.0 | 0.00 | 0.00 | 0.00 | 95 | 999.6 |
| 20260504192444 | 10 | 4 | 0.0 | 0.0 | 0.00 | 0.00 | 0.00 | 95 | 999.7 |
| 20260504191923 | 10 | 7 | 0.0 | 0.0 | 0.00 | 0.00 | 0.00 | 95 | 999.4 |
| 20260504191403 | 10 | 2 | 0.0 | 0.0 | 0.00 | 0.00 | 0.00 | 95 | 999.4 |
| 20260504190844 | 10 | 341 | 0.0 | 0.0 | 0.00 | 0.00 | 0.00 | 95 | 999.4 |
| 20260504190323 | 10 | 47 | 0.0 | 0.0 | 0.00 | 0.00 | 0.00 | 95 | 999.4 |
| 20260504185803 | 10 | 54 | 0.0 | 0.0 | 0.00 | 0.00 | 0.00 | 95 | 999.4 |
| 20260504185245 | 10 | 352 | 0.0 | 0.0 | 0.00 | 0.00 | 0.00 | 95 | 999.3 |
| 20260504184723 | 10 | 63 | 0.0 | 0.0 | 0.00 | 0.00 | 0.00 | 96 | 999.1 |
| 20260504184202 | 10 | 351 | 0.0 | 0.0 | 0.00 | 0.00 | 0.00 | 96 | 999.1 |
| 20260504183644 | 10 | 1 | 0.0 | 0.0 | 0.00 | 0.00 | 0.00 | 96 | 998.9 |
| 20260504183123 | 10 | 6 | 0.0 | 0.0 | 0.00 | 0.00 | 0.00 | 96 | 999.1 |
| 20260504182603 | 10 | 346 | 0.0 | 0.0 | 0.00 | 0.00 | 0.00 | 96 | 998.8 |
| 20260504182044 | 10 | 14 | 0.0 | 0.0 | 0.00 | 0.00 | 0.00 | 97 | 999.1 |
| 20260504181523 | 10 | 335 | 0.0 | 0.0 | 0.00 | 0.00 | 0.00 | 97 | 998.7 |
| 20260504181002 | 10 | 326 | 0.0 | 0.0 | 0.00 | 0.00 | 0.00 | 97 | 998.8 |
| 20260504180444 | 10 | 13 | 1.6 | 8.0 | 0.00 | 0.00 | 0.00 | 98 | 998.7 |
| 20260504175923 | 10 | 329 | 0.0 | 0.0 | 0.00 | 0.00 | 0.00 | 98 | 998.7 |
| 20260504175403 | 10 | 337 | 0.0 | 0.0 | 0.00 | 0.00 | 0.00 | 98 | 998.7 |
| 20260504174845 | 10 | 351 | 0.0 | 0.0 | 0.00 | 0.00 | 0.00 | 98 | 998.7 |
| 20260504174323 | 10 | 7 | 0.0 | 0.0 | 0.00 | 0.00 | 0.00 | 98 | 998.7 |
| 20260504173803 | 10 | 36 | 0.0 | 0.0 | 0.00 | 0.00 | 0.00 | 99 | 998.5 |
| 20260504173245 | 10 | 335 | 0.0 | 0.0 | 0.00 | 0.00 | 0.00 | 99 | 998.6 |
| 20260504172723 | 10 | 61 | 0.0 | 0.0 | 0.00 | 0.00 | 0.00 | 99 | 998.6 |
| 20260504172202 | 10 | 346 | 4.8 | 8.0 | 0.00 | 0.00 | 0.00 | 99 | 998.7 |
| 20260504171644 | 10 | 17 | 0.0 | 0.0 | 0.00 | 0.00 | 0.00 | 99 | 998.5 |
| 20260504171123 | 10 | 342 | 0.0 | 0.0 | 0.00 | 0.00 | 0.00 | 99 | 998.5 |
| 20260504170603 | 10 | 338 | 0.0 | 0.0 | 0.00 | 0.00 | 0.00 | 99 | 998.4 |
| 20260504160203 | 10 | 35 | 0.0 | 4.8 | 0.00 | 0.00 | 0.00 | 99 | 998.4 |
| 20260504150851 | 10 | 19 | 1.6 | 4.8 | 0.00 | 0.00 | 0.00 | 99 | 998.2 |
| 20260504150324 | 10 | 32 | 1.6 | 4.8 | 0.00 | 0.00 | 0.00 | 99 | 997.9 |
| 20260504141024 | 10 | 311 | 3.2 | 4.8 | 0.00 | 0.00 | 0.00 | 99 | 997.6 |
| 20260504140514 | 10 | 14 | 4.8 | 8.0 | 0.00 | 0.00 | 0.00 | 99 | 997.8 |
| 20260504130323 | 10 | 46 | 4.8 | 8.0 | 0.00 | 0.00 | 0.38 | 99 | 997.4 |
| 20260504110603 | 11 | 321 | 4.8 | 8.0 | 0.00 | 0.00 | 0.38 | 98 | 996.7 |